Regional Weather Roundup
Issued by NWS Huntsville, AL

Home | Current Version | Previous Version | Text Only | Print | Product List | Glossary On
Versions: 1 2 3 4 5 6 7 8 9 10 11 12 13 14 15 16 17 18 19 20 21 22 23 24 25 26 27 28
000
ASUS44 KHUN 212210
RWRHUN

WEATHER ROUNDUP FOR THE TENNESSEE VALLEY
NATIONAL WEATHER SERVICE HUNTSVILLE AL
400 PM CST SAT JAN 21 2017

ALZ001>004-212300-
NORTHWEST ALABAMA

CITY           SKY/WX    TMP DP  RH WIND       PRES   REMARKS
COURTLAND HCN    N/A     66 N/A N/A S6          N/A
RUSSELLVILLE     N/A     66 N/A N/A MISG        N/A
SHOALS AIRPORT MOSUNNY   66  52  60 SE7       29.60F
$$

ALZ005>007-016-212300-
NORTH CENTRAL ALABAMA

CITY           SKY/WX    TMP DP  RH WIND       PRES   REMARKS
DECATUR AP     SUNNY     65  55  70 CALM      29.61F
HUNTSVILLE AP  MOSUNNY   67  54  63 S5        29.61F
MERIDIANVILLE  SUNNY     64  46  52 SE6       29.62S
REDSTONE ARSN  SUNNY     66  52  60 SE5       29.61S
VINEMONT AP    FAIR      63  53  68 S6        29.64S
$$

ALZ008>010-212300-
NORTHEAST ALABAMA

CITY           SKY/WX    TMP DP  RH WIND       PRES   REMARKS
ALBERTVILLE    SUNNY     63  59  88 S5        29.62S
FORT PAYNE     SUNNY     64  50  59 SE3       29.63F
SCOTTSBORO AP  SUNNY     64  50  59 CALM      29.63F
SCOTTSBORO HCN   N/A     66 N/A N/A MISG        N/A
VALLEY HEAD      N/A     63 N/A N/A MISG        N/A
$$

TNZ076-096-097-212300-
SOUTHEASTERN MIDDLE TENNESSEE

CITY           SKY/WX    TMP DP  RH WIND       PRES   REMARKS
TULLAHOMA      SUNNY     63  48  59 SE3       29.63F
WINCHESTER     SUNNY     64  50  59 CALM      29.63F
$$

...SURROUNDING SITES...

CITY           SKY/WX    TMP DP  RH WIND       PRES   REMARKS
ATLANTA        CLOUDY    63  57  81 SW3       29.66R
ANNISTON       SUNNY     67  56  67 W6        29.63F
BIRMINGHAM     MOSUNNY   66  55  67 S7        29.64F
CHATTANOOGA    PTCLDY    65  52  62 CALM      29.64S
CORINTH        FAIR      68  52  56 S6        29.59R
DALTON         PTCLDY    63  54  72 CALM      29.65S
GADSDEN        MOSUNNY   65  55  70 CALM      29.64F
GOLDEN TRNGL   MOSUNNY   66  54  63 S9        29.56R
HALEYVILLE     FAIR      66  53  63 S6        29.63S
JACKSON TN     CLOUDY    69  50  50 VRB6      29.57S
MEMPHIS        CLOUDY    69  52  54 S7        29.55F
NASHVILLE      PTSUNNY   66  48  52 SE12      29.61F
OXFORD MS      FAIR      64  52  63 S3        29.59S
ROME           PTSUNNY   65  55  70 SE3       29.63F
SAVANNAH       SUNNY     66  54  63 S3        29.59R
TUPELO         PTSUNNY   67  53  61 SE7       29.57S
TUSCALOOSA     MOSUNNY   68  56  65 SE6       29.62R
$$

...GULF COAST WEATHER...

CITY           SKY/WX    TMP DP  RH WIND       PRES   REMARKS
GULFPORT       CLOUDY    68  62  81 SE13      29.59F
PASCAGOULA     CLOUDY    68  59  73 SE8       29.62F
MOBILE         CLOUDY    70  61  73 SE10      29.63F
GULF SHORES    CLOUDY    67  65  93 E7        29.66R
PENSACOLA      CLOUDY    67  62  84 E8        29.65F
DESTIN         CLOUDY    69  67  93 CALM      29.68F
PANAMA CITY    PTSUNNY   70  66  88 S12       29.69F
APPALACHICOLA  CLOUDY    73  72  96 SW9       29.71F
$$





USA.gov is the U.S. government's official web portal to all federal, state and local government web resources and services.